Weather in Malokaterynivka

Ukraine / Zaporizhia Region     47°39′27″N   35°15′25″E
В апреле 2022 года жителям России запретили посещать сайт meteo.paraplan.net по решению Генеральной прокуратуры. Аудитория сайта уменьшилась в 10 раз. Владельцы сайта не видят смысла в поддержке погодного сервера в таких условиях. Сайт будет закрыт в октябре.
temp.,
°C
wind,
m/s
gust,
m/s
humid.,
%
clouds,
%
prec.,
mm/h
press.,
hPa
HPBL,
m
29 september, thu
thu2900:00+16w11846 0.0 100611
03:00+15w11870 0.0 100711
06:00+15sw11875 0.0 100811
09:00+18w227158 0.0 1010291
12:00+22sw235299 0.0 1011964
15:00+23sw3442100 0.0 10111191
18:00+21sse115174 0.0 101257
21:00+19se465497 0.0 1013108
30 september, fri
fri3000:00+17sse3865100 0.0 1013204
03:00+16se3870100 0.0 1014162
06:00+16se387993 0.0 1014180
09:00+19s4978100 0.1 1015419
12:00+23ssw455357 0.0 1015742
15:00+25sw454477 0.2 10151108
18:00+21s1268100 3.8 101541
21:00+18ssw31183100 10.9 1017303
1 october, sat
sat100:00+18ssw378450 1.6 1017158
03:00+17ssw228839 1.6 101840
06:00+16sw229358 0.0 101940
09:00+19sw2381100 0.0 1019196
12:00+23sw3459100 0.0 1019595
15:00+25sw354488 0.0 1017824
18:00+23s2253100 0.0 101725
21:00+21s3655100 0.0 1016103
2 october, sun
sun200:00+19ssw3563100 0.0 1015102
03:00+18ssw3465100 0.0 101492
06:00+18sse3670100 0.0 1013108
09:00+20sse596379 0.0 1012350
12:00+25sse574347 0.0 10101050
15:00+26sse7839100 0.0 10071461
18:00+22sse5854100 0.0 1006572
21:00+20se51163100 0.0 1004506
3 october, mon
mon300:00+19s51070100 0.1 1004582
03:00+18sse1281100 1.1 1002119
06:00+15sw71088100 1.4 995562
09:00+13w91377100 1.6 9971066
12:00+12w91376100 0.2 10021381
15:00+13w91470100 0.4 10051531
18:00+14wsw711625 0.1 1008853
21:00+13wsw6116615 0.1 1010522